Theta_e
310 316 320 320 322 322 321 316 315 318 315 310 312 312 310 310 309 308 309 306 302 306 310 308 307 307 307 308 307 305 302 299 297 297 298 298 298 297 297 298 298 298 298 298 296 295 295 294 294 294 293 293 293 293 293 292 292 292 293 292 292 292 292 292 292 292 292 292 292 292 292 292 292 292 292 292 292 292 292 292 293 292 292 292 292 292
312 317 321 326 322 316 316 311 308 310 307 307 309 309 309 309 309 307 307 306 302 305 311 310 308 307 306 307 307 306 304 301 298 297 298 298 298 298 298 298 298 298 297 297 296 295 294 294 293 293 293 293 293 293 292 292 292 292 292 292 292 291 291 291 291 291 292 291 292 291 291 291 292 291 292 292 292 292 292 292 292 292 292 291 291 291
318 320 322 320 310 306 308 305 306 308 307 308 308 309 310 309 311 310 307 307 305 305 310 311 308 307 307 306 307 306 305 304 302 301 302 301 299 298 298 298 297 297 297 297 296 295 294 293 293 293 293 293 293 293 292 292 292 292 292 291 291 291 291 291 291 291 291 291 291 291 290 291 291 291 291 291 291 291 291 291 291 291 291 291 291 291
322 323 315 306 302 307 309 305 306 308 307 309 309 309 312 309 311 314 310 308 309 306 307 309 307 306 307 306 307 306 303 304 304 304 304 302 301 301 300 300 298 297 297 297 297 295 294 293 293 293 293 293 293 292 292 292 292 292 291 291 291 290 290 290 290 290 290 290 290 290 290 290 290 290 290 290 291 291 291 291 291 291 290 290 290 290
322 317 304 300 304 310 311 307 307 309 310 314 312 310 311 311 310 312 311 308 310 309 305 307 310 313 312 309 309 305 301 303 303 302 303 301 302 302 300 300 299 298 298 297 297 295 294 293 293 293 293 293 293 292 292 292 292 291 290 290 290 290 290 290 290 290 290 290 290 290 290 290 290 291 291 291 291 291 291 291 291 290 290 289 289 289
319 308 302 307 309 308 310 311 312 312 312 317 317 312 310 312 310 310 311 309 313 315 307 307 314 318 315 313 314 310 306 307 304 301 301 300 301 301 300 300 299 298 298 297 297 296 295 294 293 293 292 293 292 292 292 292 291 291 290 290 290 290 290 290 290 290 290 290 290 290 290 290 291 291 291 290 291 291 291 290 290 289 289 289 289 289
315 305 306 314 312 309 310 312 314 313 312 315 315 312 309 309 308 310 311 309 315 317 308 309 315 315 313 316 317 313 311 311 307 305 303 299 299 300 301 301 299 298 297 296 297 296 295 294 293 293 293 293 293 292 292 291 291 291 290 290 290 290 289 290 290 290 290 290 289 290 290 290 290 290 290 290 290 290 290 289 289 289 289 289 289 289
311 308 310 313 313 313 311 314 315 311 315 317 311 311 312 309 310 310 308 308 311 310 305 308 311 311 311 313 313 309 309 311 308 307 304 299 299 301 302 301 299 299 298 297 297 296 295 294 293 293 293 293 293 292 292 291 291 291 290 290 290 290 289 289 290 290 289 289 289 289 290 290 289 289 289 289 289 289 289 289 288 288 288 288 288 288
309 312 314 312 313 314 314 319 315 310 315 317 308 309 310 307 309 309 306 307 308 307 309 308 306 310 312 311 308 305 307 312 311 312 310 304 301 301 301 301 300 299 298 298 297 296 295 294 294 293 293 293 293 292 292 291 291 291 290 290 290 290 289 289 290 289 289 289 289 289 289 289 289 289 289 289 289 289 288 288 288 288 288 288 288 288
309 310 310 312 316 315 315 313 308 310 313 308 304 307 309 309 309 307 306 308 310 311 314 311 306 311 315 313 308 305 308 314 315 315 313 306 301 302 302 301 300 299 298 297 297 297 296 295 294 293 293 293 293 292 292 291 291 290 290 290 290 290 289 289 289 289 289 289 289 289 289 289 289 289 288 288 289 288 288 288 288 288 288 288 288 288
307 304 304 309 311 310 312 306 300 306 306 302 306 311 313 312 309 308 309 309 312 315 316 313 307 309 316 314 310 310 312 316 318 316 313 307 303 303 304 302 300 299 299 298 296 296 295 294 293 293 293 293 293 292 292 291 291 290 290 290 290 290 289 289 289 289 289 289 289 289 289 289 289 288 288 288 288 288 288 288 288 288 287 287 287 287
308 307 307 307 305 304 310 308 302 301 301 305 314 316 316 316 314 315 315 312 314 319 318 311 305 306 314 314 311 312 312 312 315 318 320 317 308 305 305 302 301 301 300 298 296 295 295 294 293 293 293 293 293 292 292 291 291 290 290 290 290 289 289 289 289 289 289 289 289 289 289 288 288 288 287 288 288 288 287 287 287 287 287 287 287 287
315 313 308 306 304 304 313 314 306 305 306 308 314 316 317 319 320 321 319 316 317 318 313 307 306 307 309 311 310 312 313 311 309 310 314 314 306 304 304 302 302 302 299 298 297 296 295 294 294 293 293 293 293 292 292 291 291 290 290 290 290 289 289 289 289 289 289 289 289 289 288 288 288 287 287 287 288 287 287 287 287 287 287 287 287 287
319 313 307 308 307 305 311 314 311 312 310 308 312 317 318 320 322 323 320 315 315 316 309 303 307 311 311 313 312 310 311 310 306 302 304 304 301 302 302 302 303 302 299 298 297 297 297 296 295 294 294 293 293 292 291 291 290 290 290 290 290 289 289 289 289 289 289 289 289 288 288 288 287 287 287 287 287 287 287 287 287 287 286 286 286 286
320 317 313 313 311 308 309 310 314 316 309 307 312 315 317 323 325 323 322 319 317 319 311 303 309 316 315 315 313 308 306 305 302 301 300 299 298 299 299 300 301 300 299 297 296 297 297 296 295 294 294 293 292 292 291 291 291 290 290 290 289 289 289 289 289 289 289 289 288 288 288 287 287 287 287 287 287 287 287 287 286 286 286 286 286 286
315 318 317 309 305 307 307 306 309 314 311 307 310 312 315 320 320 317 318 318 316 316 312 307 312 316 313 313 310 305 303 301 298 297 297 297 297 297 298 299 300 299 298 297 296 297 296 295 295 294 293 293 292 292 291 291 291 290 290 289 289 289 289 289 289 289 289 288 288 288 288 287 287 287 287 287 287 287 286 286 286 286 286 286 286 286
315 317 312 304 303 304 303 303 304 309 312 308 308 312 311 311 315 318 317 312 309 312 314 312 312 312 313 314 307 303 305 304 299 296 295 294 295 296 297 299 300 299 298 298 298 297 296 294 293 293 293 292 292 292 291 291 291 290 290 289 289 289 289 289 289 289 288 288 288 288 287 287 287 287 287 287 287 286 286 286 286 286 286 285 285 285
316 316 310 306 309 303 296 299 301 301 306 310 311 311 307 307 312 316 316 313 311 313 316 314 313 312 314 314 306 304 309 309 305 302 297 293 292 293 296 299 300 299 299 298 297 296 295 293 293 292 292 292 292 292 291 291 291 290 289 289 289 289 288 288 288 288 288 288 288 287 287 287 287 287 287 287 286 286 286 286 286 285 285 285 285 285
314 314 313 306 308 304 297 301 306 301 300 306 308 306 307 313 313 311 313 315 314 315 317 317 314 311 313 314 312 311 312 314 311 304 301 300 294 291 295 298 298 298 297 297 297 296 295 293 293 292 292 292 292 291 291 291 290 290 289 289 289 288 288 288 288 288 288 288 287 287 287 287 287 287 287 286 286 286 286 286 286 285 285 285 284 284
312 313 315 305 301 304 302 305 312 307 300 300 302 302 306 312 313 312 312 313 315 315 315 316 313 312 316 319 321 319 314 316 315 308 308 307 296 292 297 299 299 298 298 298 298 297 295 294 293 292 292 291 291 291 291 291 290 289 289 288 288 288 288 288 288 288 288 287 287 287 287 287 287 287 286 286 286 286 286 286 286 285 285 284 284 283
313 313 315 307 300 304 307 307 310 309 305 303 304 305 305 306 310 312 310 310 314 315 315 315 313 313 318 321 326 325 317 315 315 314 315 306 295 297 301 301 301 300 299 299 299 297 295 293 292 292 292 291 291 291 291 290 289 289 288 288 288 288 288 288 288 288 288 287 287 287 287 287 287 287 286 286 286 286 286 286 285 285 284 283 283 282
314 314 313 311 306 307 309 307 305 308 308 306 307 308 306 306 309 312 311 309 310 313 315 317 313 312 316 319 322 322 318 317 314 315 315 302 295 301 304 303 303 301 300 300 298 297 296 293 292 292 291 291 291 291 290 290 289 288 288 288 288 288 288 288 288 288 287 287 287 287 287 287 287 287 287 286 286 286 286 285 285 284 283 283 282 282
314 315 313 313 313 308 305 303 300 302 306 305 306 307 306 306 309 312 312 311 311 310 311 314 314 313 314 318 321 320 319 314 306 306 307 298 298 306 305 303 303 300 299 299 297 296 295 292 292 291 291 291 291 291 290 289 289 288 288 288 288 288 288 288 288 287 287 287 287 287 287 287 287 287 287 287 286 286 286 285 284 283 282 282 282 281
312 315 313 312 314 310 305 302 300 300 303 305 307 306 305 306 308 310 311 312 314 312 309 312 312 312 313 313 312 311 308 303 297 299 301 297 300 306 304 302 302 299 297 296 295 295 293 291 291 291 291 291 291 290 289 288 288 288 288 288 288 288 288 287 287 287 287 287 287 287 287 287 287 287 287 287 286 286 285 284 283 282 282 281 281 281
312 315 314 312 314 313 310 307 305 303 303 305 307 306 305 306 307 308 309 309 312 312 311 312 312 312 313 309 304 303 304 304 300 297 297 297 298 301 301 301 299 296 295 294 294 293 291 291 291 291 291 291 290 290 289 288 288 287 288 288 287 288 287 287 287 287 287 287 287 287 287 287 287 287 287 287 286 285 284 283 282 281 281 280 280 281
314 316 314 312 312 312 311 311 311 309 305 304 306 306 304 305 306 307 308 308 310 310 311 312 312 312 312 309 306 306 307 308 304 296 294 296 297 298 299 299 297 295 294 294 293 292 291 291 291 291 291 290 290 289 288 288 288 287 288 287 287 287 287 287 287 287 287 287 287 287 287 287 287 287 287 286 285 284 283 282 281 280 280 280 280 281
315 316 312 312 312 311 310 310 311 312 309 307 308 307 305 305 305 306 308 309 309 309 310 311 311 311 312 310 309 310 309 308 306 302 296 294 295 296 297 298 297 296 295 294 293 291 290 290 291 290 290 289 289 289 288 288 288 287 287 287 287 287 287 287 287 287 287 287 287 287 287 287 287 286 286 285 284 283 282 281 281 280 280 280 281 282
314 313 311 311 311 311 311 310 311 312 311 309 309 308 306 305 305 306 307 308 308 309 310 310 310 311 311 310 310 311 310 308 309 308 301 296 297 298 297 297 295 293 292 292 291 290 290 290 290 290 289 289 289 288 288 288 287 287 287 287 287 287 287 287 287 287 287 287 287 287 287 287 286 286 285 284 283 282 281 281 280 279 280 281 282 282
312 312 311 312 311 311 310 310 311 311 309 309 309 308 307 305 305 306 306 306 307 309 310 310 310 311 311 310 310 310 310 309 309 309 305 301 300 298 296 294 292 291 291 291 290 291 291 290 290 289 289 289 288 288 288 287 287 287 287 287 287 287 287 287 287 287 287 287 287 287 286 286 286 285 284 283 282 282 281 280 280 280 281 282 282 282
309 312 312 312 311 311 310 310 310 308 307 307 308 308 307 305 305 305 305 306 306 307 308 309 309 310 310 310 310 310 309 309 308 307 304 302 300 297 295 293 291 291 292 292 292 291 290 290 289 289 289 289 288 288 288 287 287 287 287 287 287 287 287 287 287 287 287 287 287 286 286 286 285 284 283 282 282 281 280 279 280 281 281 282 282 282
307 311 313 312 311 312 311 310 311 309 308 308 308 308 307 306 305 305 305 305 306 306 307 307 308 309 309 309 309 308 307 307 307 305 303 301 300 297 294 293 292 292 292 293 292 291 289 289 289 289 289 289 288 288 287 287 287 287 287 287 287 287 287 287 287 287 287 287 286 286 286 285 284 283 282 282 281 280 279 280 280 281 282 282 282 282
309 310 312 312 312 312 311 312 312 310 309 308 309 309 308 307 307 306 306 306 306 306 307 307 307 308 308 308 308 307 306 306 307 306 303 303 302 298 295 294 293 294 294 293 292 290 289 289 289 289 289 289 288 288 287 287 287 287 287 287 287 287 286 286 287 287 287 287 286 286 284 283 283 283 282 281 280 279 279 280 281 281 282 282 282 281
310 310 311 311 311 311 312 312 311 310 309 310 310 310 309 308 308 308 308 308 306 306 307 308 308 308 308 308 308 308 307 307 307 305 304 304 303 299 297 296 296 297 296 295 293 291 290 289 289 289 289 288 288 288 287 287 287 287 287 287 287 287 286 286 287 287 287 286 286 285 283 283 283 282 281 280 279 279 280 280 281 281 281 281 281 281
308 309 310 311 311 311 311 310 310 310 310 311 312 312 311 310 309 309 309 309 308 307 307 307 308 308 308 308 308 308 308 307 307 306 305 305 303 301 299 298 298 299 298 296 294 292 290 289 289 289 289 288 288 288 287 287 287 287 287 287 287 286 286 286 287 287 287 286 285 284 283 283 282 281 280 279 279 279 280 280 281 281 281 281 281 280
308 308 308 310 311 310 308 309 311 311 311 311 313 316 314 311 310 310 309 309 309 308 308 307 307 307 307 308 308 307 307 307 307 306 305 304 304 302 301 300 300 299 297 295 293 291 290 289 289 289 288 288 288 288 287 287 287 287 287 287 286 286 286 287 287 287 286 285 284 284 283 283 282 280 279 278 279 279 280 280 281 281 281 280 279 278
309 307 308 309 311 309 307 309 311 311 311 310 312 313 310 307 308 309 310 309 308 308 308 308 307 307 307 307 307 307 306 305 304 304 304 303 303 303 302 302 302 301 299 297 295 293 291 290 289 289 288 288 288 287 287 287 287 287 286 286 286 286 286 287 287 286 285 285 284 283 283 282 280 279 278 278 279 279 280 280 280 280 280 279 278 276
308 309 308 308 310 310 309 309 310 310 310 310 310 309 308 307 309 310 310 310 309 308 308 307 308 308 307 307 307 305 303 303 303 304 304 303 303 302 302 302 302 301 300 298 296 293 292 290 289 289 288 288 287 287 287 287 286 286 286 286 286 286 286 287 286 286 285 284 283 283 282 280 279 278 278 278 278 279 279 280 280 280 279 279 277 276
306 308 309 309 310 310 310 310 309 310 311 309 309 310 309 308 308 309 310 310 310 309 309 308 308 308 307 308 305 301 302 304 305 305 304 303 302 301 301 300 299 299 298 296 293 291 290 289 289 288 288 288 287 287 287 287 286 286 286 286 286 286 286 286 286 285 284 283 283 282 281 279 278 277 277 278 278 278 279 279 279 279 278 277 276 275
306 307 308 309 309 310 311 310 310 311 311 309 310 311 308 305 306 308 309 309 309 309 309 308 308 307 308 307 302 300 303 306 306 305 304 303 301 300 300 298 296 295 294 293 293 291 290 289 288 288 287 287 287 287 286 286 286 286 286 286 286 286 286 286 285 285 284 283 282 281 279 278 277 277 277 277 278 278 278 279 279 278 278 276 275 274
305 305 306 307 309 310 310 310 310 311 310 310 311 309 303 301 305 309 310 310 311 310 308 307 308 308 306 303 300 301 304 306 306 305 302 301 300 298 297 296 295 294 292 291 291 291 290 289 288 288 287 287 287 287 286 286 286 286 286 286 286 286 286 286 285 284 283 282 281 280 278 277 276 276 277 277 277 277 278 278 278 278 277 276 275 274
305 305 305 306 308 309 310 311 311 310 311 312 309 303 299 301 307 310 310 311 313 311 306 304 306 306 303 300 298 301 304 304 303 302 300 299 299 297 296 294 293 293 292 291 290 290 289 288 288 288 287 287 287 287 286 286 286 286 286 286 286 286 286 285 284 283 282 281 280 278 277 276 276 276 276 277 277 277 277 278 278 277 277 276 275 273
307 307 307 307 308 308 309 310 310 310 312 310 304 299 300 305 309 309 309 309 310 308 304 302 303 303 302 299 298 301 303 302 300 299 298 298 298 297 295 293 291 290 290 290 290 289 289 288 287 287 287 286 286 286 286 286 286 285 285 286 286 286 285 284 283 282 281 280 279 277 276 275 276 276 276 276 276 276 276 277 277 276 276 275 274 273
309 309 308 308 308 309 309 310 310 311 312 308 303 300 303 307 310 310 308 308 308 306 304 303 303 303 303 300 299 301 301 299 298 297 297 297 296 296 295 292 291 290 289 289 289 288 288 288 287 287 287 286 286 286 285 286 285 285 285 286 286 285 284 283 282 281 280 279 278 276 275 275 275 276 276 276 276 276 276 276 277 276 275 275 273 272
311 311 310 309 310 310 310 310 311 313 311 306 305 306 305 306 309 309 309 309 308 307 305 303 303 305 304 303 302 301 298 297 297 296 296 295 294 294 293 291 290 290 289 289 288 287 288 288 287 287 286 286 286 285 285 285 285 285 285 286 285 284 283 282 281 280 279 278 277 276 275 275 275 275 276 276 276 275 275 276 276 276 275 274 272 271
312 312 312 311 311 311 312 311 310 312 308 304 306 310 308 306 307 308 308 308 308 306 305 304 304 305 305 304 303 301 298 297 297 296 295 295 293 293 292 290 290 290 289 288 287 287 287 287 287 287 286 285 285 285 285 285 285 285 285 285 285 284 283 282 281 279 279 278 276 275 274 275 275 275 275 276 275 275 275 275 275 276 275 273 271 270
313 312 312 312 311 310 311 310 310 310 306 302 305 309 309 308 308 306 305 306 306 306 306 305 305 306 305 304 302 300 299 299 297 295 294 294 292 292 291 290 289 288 288 287 287 287 286 286 286 286 286 285 285 285 285 285 285 285 285 285 284 283 282 281 280 279 278 277 275 274 274 274 275 275 275 275 275 275 274 273 274 275 274 272 271 269
313 312 311 312 312 312 312 311 310 310 307 304 304 306 307 308 308 307 305 305 305 306 306 306 306 306 305 305 303 302 301 299 296 294 293 292 291 290 290 289 288 287 287 287 287 287 286 285 286 286 285 285 285 285 285 285 285 285 285 284 283 282 281 280 279 278 277 276 274 274 274 274 274 274 275 275 275 275 274 273 273 273 273 273 271 269
312 312 311 311 311 312 312 311 311 310 308 306 305 306 306 306 306 306 306 306 306 305 305 305 305 304 304 305 304 303 301 298 296 295 292 291 291 290 289 289 288 287 287 287 287 287 286 286 286 285 285 285 285 285 285 285 285 285 285 284 282 281 280 279 278 277 277 275 274 273 273 273 273 274 274 274 274 274 274 273 273 272 272 272 271 269
312 312 312 312 311 311 312 312 311 311 309 308 307 306 307 307 306 305 305 305 304 303 303 302 303 303 304 304 303 301 299 297 296 295 293 291 291 290 289 289 288 287 287 287 286 286 286 286 285 285 285 285 285 285 285 285 285 285 284 283 281 280 279 278 277 277 276 274 273 273 273 273 273 273 273 273 273 274 273 273 272 272 272 272 272 270
313 312 312 312 312 312 312 311 311 312 311 310 309 308 308 308 307 305 304 303 303 302 302 301 301 302 302 302 302 301 299 298 296 295 293 292 292 291 290 289 288 287 287 286 286 286 285 285 285 285 285 285 285 285 285 285 285 284 283 282 280 279 278 277 276 276 275 273 272 272 272 272 272 272 272 272 272 272 273 272 272 272 272 272 272 271
313 312 312 313 313 312 312 311 311 311 311 311 310 310 310 309 308 306 305 304 304 303 302 301 301 301 301 300 300 300 300 299 297 294 292 292 292 292 291 289 288 288 287 286 286 285 284 284 284 284 285 285 284 285 285 284 284 284 282 281 280 278 277 276 276 275 274 273 272 272 272 272 272 272 272 271 271 271 272 272 272 272 272 272 271 272
Wind_Speed
2 1 3 5 7 8 7 8 6 5 6 5 4 4 6 6 8 7 5 4 1 2 9 9 9 13 17 18 19 17 18 23 24 23 26 28 30 34 38 41 44 45 45 40 36 35 33 31 28 26 24 22 19 18 16 14 11 9 8 7 7 8 9 11 12 14 15 16 17 18 18 19 19 20 20 20 22 23 24 25 26 27 28 28 29 29
3 2 7 9 9 7 6 6 6 6 5 3 4 4 5 5 8 9 4 4 1 3 6 8 7 13 16 17 22 16 11 16 20 21 27 30 32 35 38 42 43 42 42 39 38 37 35 33 30 28 26 23 21 19 16 14 11 9 7 6 7 8 9 11 13 14 16 17 18 19 20 21 21 21 22 22 22 23 23 24 26 27 28 28 29 29
2 6 11 8 6 5 5 6 7 6 5 2 2 2 4 4 5 8 4 4 2 3 5 8 8 14 17 17 23 18 11 18 24 26 32 32 32 36 38 41 40 40 41 41 41 40 38 35 32 30 28 24 21 19 17 14 12 9 7 6 6 8 9 11 13 14 16 17 19 20 20 21 22 22 23 23 24 24 24 24 26 28 28 29 29 29
2 8 7 6 9 8 5 4 7 5 2 3 3 2 5 4 2 5 4 5 3 3 4 8 10 13 14 14 19 16 13 20 25 28 34 32 32 36 37 39 40 41 43 43 44 43 40 37 35 33 30 25 23 21 18 15 11 9 6 6 7 8 9 11 13 15 16 17 18 19 20 21 22 22 23 24 24 25 27 27 28 29 30 31 31 30
7 6 4 8 6 6 5 3 6 4 3 4 5 6 6 6 6 6 4 5 5 3 3 6 11 10 6 8 11 7 4 12 17 22 28 29 32 33 33 36 40 42 44 44 46 46 43 41 38 35 31 27 25 22 19 15 11 9 7 7 7 8 9 11 13 15 16 18 19 19 20 22 23 24 25 26 27 28 30 31 31 31 32 33 33 32
9 5 7 6 2 4 6 4 5 7 3 4 5 10 10 8 8 6 5 6 5 4 3 4 7 8 2 3 9 4 3 7 8 12 20 24 26 29 34 38 39 39 41 43 45 47 46 44 40 36 32 29 27 23 18 15 12 9 8 8 8 9 10 11 14 15 17 18 20 21 23 24 26 27 27 28 29 30 31 31 31 31 31 32 33 33
4 1 4 5 5 5 5 5 6 7 5 3 4 7 7 5 3 3 4 4 2 4 4 3 1 9 4 2 9 7 6 11 8 8 16 21 21 27 37 40 38 38 40 41 43 46 48 46 43 39 35 32 28 23 19 16 13 11 9 9 9 9 10 12 14 16 17 19 20 22 24 26 28 29 29 29 30 31 32 32 32 32 31 32 33 33
3 3 4 4 5 4 5 6 6 8 7 4 4 5 6 5 4 4 1 2 4 2 4 2 4 8 8 6 7 5 6 13 12 11 15 18 23 30 37 38 37 39 41 42 44 47 49 48 45 42 38 33 28 24 20 18 15 12 10 10 10 10 11 12 14 16 18 19 21 23 24 26 27 29 30 31 31 32 34 34 34 34 34 33 34 34
3 5 4 5 4 3 6 5 7 11 5 5 5 6 6 5 4 4 3 3 3 3 5 5 5 4 9 6 3 4 4 11 12 14 14 15 23 31 35 36 37 38 39 41 44 47 49 50 47 43 38 33 30 25 22 19 16 13 11 10 11 11 11 13 14 16 18 20 22 23 25 27 27 29 30 31 32 33 35 36 35 36 36 36 35 35
1 4 6 7 4 5 5 2 5 8 3 3 6 5 4 5 4 4 2 1 2 3 9 7 8 4 7 4 2 3 3 9 10 12 12 13 20 26 29 33 34 35 36 39 42 45 48 50 47 42 38 34 31 27 23 20 17 14 12 11 11 11 12 13 15 16 18 20 22 23 25 27 28 29 30 31 33 34 35 37 37 37 38 38 37 36
0 2 2 4 5 5 5 3 2 3 2 5 6 4 5 4 4 4 2 2 2 6 11 8 12 8 5 3 4 4 5 8 8 8 8 11 17 23 26 28 30 33 35 38 40 43 46 47 45 42 39 37 33 29 25 22 18 16 13 12 12 12 12 13 15 16 18 20 22 24 26 27 29 30 31 33 34 35 36 37 38 38 39 39 39 38
3 1 2 3 5 6 7 5 3 3 3 5 5 4 4 4 4 5 4 3 0 8 7 3 8 8 7 6 5 6 7 7 8 7 7 9 16 22 23 24 26 29 34 37 39 42 45 47 47 45 43 39 35 32 27 23 19 17 15 13 12 12 13 14 15 17 18 20 22 24 25 27 29 30 31 34 35 36 37 38 39 39 40 40 40 40
3 5 3 1 4 6 6 4 3 4 3 4 4 5 2 4 4 4 4 0 3 8 4 3 4 4 10 10 8 11 11 10 10 11 11 11 14 19 19 19 22 26 32 36 39 42 46 50 51 50 47 43 38 34 28 23 20 17 16 14 12 12 13 14 16 17 19 20 22 24 25 27 28 29 31 33 35 37 38 39 39 40 41 41 41 41
3 4 0 2 3 7 9 5 3 2 1 5 5 5 4 1 1 3 5 3 6 8 3 4 3 4 7 7 12 17 15 16 15 15 17 16 17 18 17 16 20 25 31 36 39 42 47 51 54 54 50 46 40 34 28 24 20 18 16 14 12 12 13 14 16 18 19 21 22 24 25 26 27 29 31 33 35 37 38 39 40 41 41 42 43 43
4 7 4 6 2 8 11 6 5 5 4 5 5 5 5 5 4 4 4 5 7 6 3 3 2 4 3 4 9 13 13 16 14 14 17 18 18 18 16 16 20 27 31 34 38 42 46 50 53 54 51 46 40 34 28 24 21 19 16 14 13 13 13 15 16 18 20 21 22 23 24 26 27 29 31 33 35 37 38 39 40 41 42 43 43 44
4 9 6 2 1 8 8 3 5 7 3 2 3 4 3 5 5 3 4 5 2 5 4 4 4 5 3 7 7 2 6 10 8 9 11 12 13 13 15 19 23 28 31 34 38 42 45 49 52 52 49 44 39 33 28 24 22 19 17 14 13 13 14 16 17 18 20 21 21 23 24 25 27 29 32 34 35 37 38 40 41 42 42 43 44 44
3 6 3 1 1 3 4 3 3 2 4 3 3 4 4 4 5 2 4 1 4 4 6 3 6 6 2 6 5 2 6 8 4 5 5 6 7 10 17 22 24 28 31 33 37 41 45 48 50 50 47 43 38 33 28 25 22 20 17 15 13 14 15 16 17 18 19 20 21 22 23 25 27 30 32 34 36 37 39 40 41 42 43 43 44 45
4 4 3 3 2 3 1 2 1 2 5 5 3 5 3 2 3 3 2 3 2 4 6 3 8 7 2 4 2 1 7 9 7 5 3 5 7 13 20 23 24 28 30 32 36 40 44 47 48 48 45 41 36 32 28 25 23 19 16 14 13 13 14 15 16 17 18 20 20 21 23 25 28 30 32 35 37 38 40 41 42 43 44 44 44 45
3 3 4 2 3 2 1 2 1 1 3 5 4 3 3 3 2 2 2 3 2 4 6 8 10 8 5 4 2 4 9 10 7 6 4 7 10 16 23 24 25 27 29 32 36 40 44 47 47 47 44 40 35 31 29 25 22 18 15 14 12 13 13 14 15 16 17 19 20 21 23 26 28 31 33 35 38 40 41 43 44 44 45 45 44 45
3 3 4 1 1 2 1 2 5 3 1 3 1 2 1 3 4 3 3 2 3 4 7 9 12 9 6 6 7 9 11 10 7 6 8 10 14 21 25 25 27 29 31 34 36 40 44 46 47 46 43 39 35 31 29 25 21 17 14 13 12 12 12 13 14 15 17 18 19 22 24 27 30 32 35 37 39 41 43 44 45 46 46 46 45 45
3 3 5 1 2 1 4 6 9 10 7 4 3 3 2 2 2 1 1 2 4 4 4 5 11 12 5 6 7 9 10 11 10 9 9 11 18 25 26 26 29 31 32 34 36 39 44 46 46 45 41 37 35 32 29 24 20 17 14 12 11 11 11 12 14 15 16 18 20 23 25 28 31 34 36 38 40 43 44 46 47 47 47 46 46 45
3 4 6 3 2 5 6 3 3 8 8 8 8 8 8 6 4 1 5 3 4 4 4 3 9 15 5 6 6 7 9 10 11 10 8 11 21 26 26 27 29 31 33 35 37 40 43 46 47 44 41 38 36 32 28 23 19 16 14 12 11 10 11 12 13 14 16 18 21 25 27 30 33 36 38 40 42 44 46 47 47 47 47 47 46 45
4 3 5 6 5 6 5 2 1 3 2 2 5 5 7 7 7 6 8 5 3 3 3 4 5 14 6 7 7 7 8 10 12 12 9 13 22 24 24 27 29 31 34 35 37 40 44 47 46 44 41 39 35 31 26 22 19 16 14 12 10 10 11 12 13 14 17 19 22 26 29 32 36 38 41 43 45 47 48 49 49 47 46 46 46 45
3 2 5 7 4 3 4 3 2 2 2 2 6 5 7 9 10 9 6 3 3 4 4 4 6 15 6 4 5 3 4 6 10 13 12 13 20 23 24 26 28 31 33 34 37 41 43 45 44 42 41 38 35 30 26 22 18 16 13 11 10 10 11 11 13 15 18 21 24 27 31 35 38 40 43 45 48 50 50 50 49 47 46 46 46 45
6 3 4 5 6 5 4 3 2 1 2 4 6 5 8 13 11 4 0 2 3 7 8 5 12 16 6 2 1 1 2 5 8 13 15 15 18 21 23 25 27 30 33 35 38 41 43 45 45 43 42 39 34 29 24 21 18 15 13 12 11 10 10 12 14 16 19 22 25 29 33 36 40 43 45 47 50 51 51 50 49 47 46 46 45 45
8 4 6 8 10 10 9 6 4 3 3 3 4 5 10 16 15 8 3 5 8 8 9 9 18 16 10 5 1 3 6 7 10 12 14 18 20 21 22 24 27 31 34 37 39 42 45 46 46 44 41 37 32 27 23 20 17 15 13 12 11 10 11 12 14 17 20 24 27 31 34 38 41 44 47 49 51 51 50 49 48 47 46 45 45 45
4 3 10 14 15 14 14 11 5 6 5 6 10 12 14 16 16 12 8 7 11 9 8 18 21 15 21 20 6 4 9 10 12 12 12 18 23 23 24 26 28 32 34 37 39 42 45 47 47 44 39 34 29 25 22 20 18 16 13 12 11 10 12 13 15 18 22 25 29 32 36 39 42 46 48 50 50 49 49 48 47 46 45 44 44 44
2 6 14 18 19 17 17 14 6 8 9 12 14 17 18 16 15 14 14 15 13 10 12 22 19 15 26 27 13 11 15 13 15 15 13 19 25 26 27 27 28 31 33 35 39 42 46 48 47 43 37 33 29 26 23 21 18 16 13 12 11 11 12 14 16 20 23 27 31 34 37 40 43 47 48 49 49 48 47 46 44 44 43 42 43 44
2 9 15 15 17 17 17 15 8 8 9 10 12 18 19 18 18 18 20 23 20 14 17 22 20 21 28 23 13 16 17 14 20 23 19 21 26 26 26 27 29 32 34 37 40 44 47 48 46 42 37 33 30 26 24 21 18 16 13 11 11 11 13 15 17 21 24 28 32 35 38 42 44 47 48 48 48 47 45 44 43 42 42 42 43 44
3 8 13 12 14 16 19 18 10 8 10 9 11 19 19 16 18 21 24 27 24 19 22 25 25 29 28 18 14 21 22 20 24 26 20 19 23 24 26 29 31 33 36 39 42 44 46 47 45 42 37 33 30 27 24 21 18 15 13 11 11 12 13 16 19 22 26 29 33 36 39 42 45 46 46 46 46 44 43 42 42 42 42 42 43 44
5 7 10 8 9 15 19 17 11 11 13 12 16 25 21 12 13 22 25 22 17 18 24 27 26 27 24 17 16 22 25 23 23 23 22 23 24 24 27 30 31 34 36 39 41 43 45 46 45 42 38 34 31 27 23 20 17 15 13 11 11 12 14 16 19 23 27 30 33 37 40 42 44 45 45 45 43 41 41 41 41 42 41 42 43 44
5 5 5 4 8 15 16 11 10 10 7 10 21 31 24 14 16 23 20 14 14 19 23 23 20 20 20 17 15 17 19 20 20 20 23 28 28 28 29 31 32 35 37 38 41 43 45 47 47 44 40 35 31 27 23 20 17 14 12 11 11 12 14 17 20 23 27 31 34 37 39 41 43 44 44 42 41 40 40 40 40 41 41 41 43 43
5 5 5 6 10 14 9 3 5 4 2 11 20 23 22 20 23 23 16 16 21 21 17 17 18 20 18 15 16 18 18 18 19 21 24 28 28 29 32 34 35 36 38 39 41 45 47 49 49 45 39 34 30 26 23 20 17 14 12 11 11 12 14 17 20 24 27 31 34 36 39 41 42 42 41 39 39 39 39 39 39 40 40 41 42 43
4 7 7 6 8 11 5 5 5 4 11 14 8 9 16 22 24 21 20 25 27 19 16 20 21 20 16 15 19 21 21 23 26 27 27 27 27 29 32 35 36 37 38 38 40 44 46 48 48 43 37 33 30 26 22 19 16 13 11 10 11 12 14 17 20 24 27 30 33 36 38 40 40 39 38 37 37 38 38 38 39 39 40 42 43 43
7 8 7 5 5 5 2 5 3 12 15 9 3 4 12 16 17 19 22 29 30 24 23 25 23 21 20 21 23 23 26 32 34 31 27 26 27 30 32 33 35 36 37 38 40 42 45 47 47 43 38 34 30 26 22 19 15 13 11 10 11 12 14 17 20 24 27 30 33 35 37 38 37 36 35 35 36 36 36 37 38 38 40 42 42 43
10 8 5 5 4 1 2 6 11 13 9 11 13 10 7 4 5 10 18 24 26 24 21 19 21 24 24 23 26 29 29 28 29 32 32 30 30 31 32 33 34 35 36 38 40 42 45 48 48 44 39 34 29 25 22 18 15 12 11 10 10 11 14 18 21 24 27 30 32 34 35 35 35 34 34 34 35 35 35 36 37 38 40 42 42 41
12 9 6 7 7 6 7 10 11 11 11 16 23 16 6 4 5 7 12 20 25 24 16 14 20 26 23 21 26 26 18 12 15 26 34 34 33 33 32 32 32 31 33 35 37 40 43 47 47 42 36 32 28 24 21 17 14 12 11 10 10 12 15 18 21 23 27 30 32 33 33 33 32 32 32 33 34 34 34 35 36 38 40 41 41 41
15 12 10 10 9 8 10 11 10 11 12 19 26 17 5 10 12 9 7 18 27 21 13 16 22 25 21 19 17 9 2 3 8 17 27 29 27 27 28 30 29 29 30 33 36 38 41 45 44 38 34 30 27 24 20 17 15 13 11 10 10 12 15 18 21 24 27 29 30 31 31 30 30 31 31 31 32 33 33 35 36 37 38 39 40 40
15 11 11 12 9 9 11 11 11 12 13 17 21 13 5 11 10 7 5 18 19 7 15 18 22 21 18 15 10 7 5 3 8 13 18 18 15 18 23 26 27 26 28 32 34 37 42 44 42 37 33 30 26 23 20 17 15 13 11 10 11 12 15 18 21 24 27 28 29 29 29 29 28 29 30 30 30 31 32 34 35 37 37 37 38 39
11 9 9 11 12 13 13 12 10 9 9 14 15 6 7 13 14 9 9 18 8 11 18 19 17 17 16 11 9 8 7 9 10 11 11 9 8 13 17 20 24 26 28 31 33 36 42 44 41 37 34 30 26 22 20 18 15 13 11 10 11 13 16 19 21 24 26 26 26 26 26 26 26 27 28 29 29 30 31 33 35 36 36 37 37 38
6 8 9 11 14 15 14 14 12 6 8 15 10 7 13 14 11 8 16 12 2 8 17 20 17 20 19 13 12 10 16 21 17 10 7 6 7 10 14 18 22 24 27 31 34 39 44 44 40 36 32 29 26 23 20 18 15 13 11 10 12 14 17 19 21 23 24 24 24 24 24 24 25 25 26 28 29 29 30 31 33 35 36 36 37 38
5 5 7 10 13 12 12 14 10 6 13 16 7 14 17 10 6 16 14 6 3 6 14 19 22 24 23 22 22 22 23 26 22 14 10 9 9 12 16 20 24 26 29 33 37 42 45 43 38 35 32 28 26 23 21 18 15 12 10 10 13 15 17 19 21 22 22 22 22 22 22 22 23 24 25 27 28 29 29 30 32 33 34 36 37 39
9 6 6 8 9 9 9 10 8 9 14 14 13 9 9 10 17 23 14 10 15 16 15 20 25 26 26 27 31 30 23 19 21 19 16 14 13 15 18 22 27 31 34 38 42 45 44 41 38 34 31 29 26 23 20 17 14 12 10 11 14 15 16 18 20 20 20 20 21 20 20 21 21 23 24 26 27 28 29 30 31 33 34 35 37 39
8 7 6 7 8 7 7 10 11 11 11 24 23 10 15 29 40 38 20 14 23 25 21 23 26 29 29 29 30 29 23 20 22 22 20 19 18 19 21 25 30 34 38 42 45 45 42 40 38 34 31 28 26 22 19 17 14 11 11 12 14 14 15 17 18 18 18 19 19 18 18 19 20 22 23 24 26 27 28 29 31 32 33 35 36 38
13 16 15 11 10 12 11 12 13 11 12 29 32 26 31 47 59 53 32 21 26 28 25 26 29 30 30 29 28 26 26 27 27 25 24 25 24 24 26 30 33 37 41 44 45 43 40 38 36 34 31 28 25 22 19 16 12 10 12 13 13 13 15 15 16 16 17 18 18 17 16 17 19 21 22 23 24 26 28 29 30 32 34 35 35 36
18 20 17 11 10 12 12 11 12 10 11 26 39 43 44 48 53 52 42 33 34 34 30 30 33 32 29 29 28 27 29 31 30 28 28 27 27 28 30 33 37 41 44 46 45 42 39 36 34 32 30 27 25 22 19 15 11 11 12 12 12 12 14 14 14 14 15 16 16 16 16 16 18 19 20 21 22 23 25 27 29 31 33 34 34 34
14 16 14 11 11 11 11 14 20 21 18 24 36 44 48 49 47 45 44 44 45 43 37 35 37 34 31 31 32 32 34 34 33 32 31 31 32 33 35 38 42 45 45 45 44 42 39 36 34 31 29 27 24 21 18 14 11 11 11 11 11 12 12 12 12 13 14 15 14 14 15 16 18 18 19 20 22 23 24 25 27 29 31 33 34 34
12 16 14 12 13 15 16 18 23 25 27 32 36 37 40 45 46 43 43 46 47 44 42 41 38 33 32 34 35 36 37 36 36 35 35 35 36 37 39 42 45 46 45 44 42 40 38 36 34 31 29 26 23 20 17 13 11 11 11 10 11 11 11 11 11 12 13 13 13 13 14 16 18 18 18 19 20 23 25 26 26 27 28 30 31 31
10 12 12 11 14 17 18 18 17 17 18 26 36 43 45 48 48 45 44 43 41 40 41 40 37 35 36 38 38 38 37 37 37 37 38 39 40 41 43 44 46 47 46 43 40 38 36 35 33 30 27 24 22 19 16 13 11 11 10 9 9 9 9 10 11 12 12 11 11 12 14 16 17 18 18 18 18 19 22 25 27 27 26 26 27 27
8 10 11 10 13 15 15 18 20 18 13 16 32 49 56 56 51 44 41 41 42 43 42 39 38 38 39 38 38 38 38 37 37 38 40 41 41 42 44 46 47 47 45 42 39 37 34 33 31 29 26 23 21 18 15 13 11 10 9 9 8 8 8 9 10 11 11 10 10 11 13 15 16 17 18 19 18 18 18 19 21 24 26 25 24 24
14 17 14 13 16 18 21 26 27 20 14 21 39 53 54 51 47 43 41 45 49 49 46 44 43 42 41 40 39 38 39 39 39 40 42 42 41 42 44 47 49 48 45 42 39 37 35 33 31 28 26 23 21 18 15 13 10 9 8 8 7 7 7 8 9 10 9 9 10 11 12 14 15 16 17 18 20 20 20 19 19 21 23 24 23 23
Wind_Direction
71 319 243 224 229 235 223 193 183 172 153 151 149 187 231 242 266 266 250 274 132 217 266 251 238 256 264 270 274 256 224 224 232 234 235 234 231 228 226 227 225 224 225 222 219 219 219 219 219 220 222 222 224 227 230 234 238 248 262 280 301 312 321 325 328 329 328 330 331 331 331 332 332 330 330 330 328 328 327 326 326 324 323 322 322 321
65 233 238 221 218 218 201 166 135 126 130 131 168 219 261 239 259 273 268 305 326 180 264 274 260 260 258 265 274 260 211 225 229 226 236 234 231 232 229 230 228 226 225 220 217 218 218 218 217 218 220 222 226 228 230 232 236 244 256 277 296 308 316 321 324 326 327 330 331 331 331 332 332 330 329 328 327 325 325 323 321 320 319 319 319 319
10 253 246 215 172 116 98 127 127 125 135 147 164 198 271 254 276 292 310 352 353 178 266 295 283 267 262 260 268 259 225 244 242 234 243 239 231 234 232 232 229 226 224 219 217 216 216 216 215 218 220 222 226 228 228 229 233 241 252 272 290 303 311 317 322 324 327 329 329 330 330 330 330 329 328 328 326 323 323 322 320 318 318 318 320 320
247 258 249 173 141 114 88 113 119 105 137 172 162 190 258 273 310 286 309 344 304 235 271 291 280 268 263 253 264 268 247 252 254 248 251 246 238 239 239 238 233 227 224 219 217 215 214 214 214 217 219 220 223 225 225 226 229 238 249 268 284 299 307 314 318 322 325 326 327 328 327 326 325 326 325 324 323 323 323 322 321 320 320 321 322 323
241 244 136 113 126 137 130 137 141 155 242 245 205 210 244 259 244 243 298 331 310 311 322 305 292 274 253 245 261 286 272 260 258 254 254 247 243 245 244 243 238 232 227 221 217 214 213 214 215 217 217 219 223 224 225 225 226 233 246 264 279 294 303 310 315 319 322 323 323 322 321 321 321 322 323 323 323 323 322 320 320 321 322 322 323 324
262 231 144 127 106 141 158 194 192 179 212 292 235 214 227 239 249 270 332 347 342 327 326 3 321 286 284 266 262 278 328 282 256 249 256 251 243 242 242 242 239 234 230 225 220 216 215 215 215 215 216 218 222 224 224 224 225 230 244 261 277 289 298 307 312 316 320 320 320 320 320 322 322 323 323 322 322 322 319 318 318 319 319 319 320 321
266 101 124 150 149 149 178 231 227 172 149 285 245 198 201 201 229 275 336 343 289 262 297 49 312 273 289 269 266 282 299 282 260 246 260 256 245 239 241 242 237 233 229 225 222 218 216 215 214 214 215 217 222 225 224 224 226 231 243 260 274 285 293 302 310 314 316 318 318 319 321 323 323 323 323 322 321 321 318 317 318 317 318 318 318 318
163 95 64 103 120 143 193 240 223 157 134 235 225 139 133 135 175 203 150 278 246 266 300 196 185 274 281 248 267 299 290 280 274 266 265 255 245 243 244 242 237 234 230 224 221 218 216 215 215 216 216 218 222 225 225 225 229 234 242 258 271 281 291 300 308 311 313 315 316 318 319 320 321 320 320 320 320 319 317 317 318 318 318 318 318 318
131 159 187 146 116 188 209 232 194 160 153 242 196 131 124 131 157 164 152 235 278 5 289 217 160 276 274 251 315 8 267 271 273 265 263 254 246 245 245 242 238 236 233 228 224 220 217 216 216 217 217 220 223 225 226 227 230 235 241 255 269 280 290 298 305 308 311 314 315 317 317 318 318 317 317 318 319 319 317 317 319 318 318 318 318 318
113 169 190 154 157 220 215 254 184 168 192 198 141 105 76 75 80 93 135 222 20 329 266 226 169 229 271 237 100 57 238 250 260 260 261 261 254 249 248 245 239 235 233 230 227 223 220 217 216 217 218 221 224 225 226 227 231 235 241 253 267 279 289 296 302 306 310 313 314 315 316 317 317 317 317 318 318 318 317 317 318 318 318 318 318 317
307 108 161 172 190 184 140 91 98 131 139 128 107 58 30 36 49 55 68 64 30 274 267 229 180 193 276 259 185 186 213 215 223 248 265 270 263 256 252 247 240 235 233 229 225 222 219 216 215 216 219 222 225 226 226 228 232 236 242 252 266 279 288 295 301 306 310 312 313 314 316 317 317 318 319 320 319 318 318 318 318 318 318 317 318 317
337 145 205 215 187 139 103 78 56 54 97 107 82 56 15 334 7 22 356 42 67 257 270 224 173 187 243 252 221 233 248 223 205 225 245 255 261 260 254 247 241 237 233 228 222 219 216 213 213 215 219 222 224 225 226 228 232 237 244 252 265 278 287 294 300 306 310 312 313 314 316 317 318 320 322 322 321 320 319 319 318 318 318 317 317 316
304 223 218 182 188 164 121 77 32 0 46 98 90 84 47 324 358 348 307 54 223 251 261 145 151 219 245 244 236 242 252 240 220 220 228 244 266 271 264 251 244 238 231 226 221 217 215 213 214 216 219 221 223 224 225 228 232 236 245 254 265 276 284 293 299 306 311 313 314 316 317 318 320 322 323 322 320 319 319 319 319 319 319 318 317 316
294 297 307 155 237 188 164 155 204 264 142 150 143 130 147 137 44 275 273 278 266 269 255 157 162 266 272 257 229 225 230 231 229 232 240 256 273 280 279 263 249 239 231 226 221 218 216 215 216 218 219 220 222 223 224 227 231 237 246 256 266 276 284 293 301 307 312 314 316 318 319 320 321 323 322 321 319 319 319 319 319 319 318 318 317 316
251 294 217 184 214 177 182 194 168 139 143 178 156 139 157 152 171 224 230 244 274 291 262 188 200 230 246 283 231 215 228 238 244 252 255 267 274 275 274 259 246 238 230 225 221 219 219 217 217 218 219 220 221 222 224 227 232 239 247 257 265 275 286 295 303 310 313 316 318 320 321 321 322 322 321 320 319 319 320 320 319 319 318 317 316 315
226 269 243 210 132 162 182 194 121 110 138 213 122 121 180 175 170 214 218 203 261 313 273 201 223 222 213 281 271 242 270 259 261 269 266 275 275 263 254 245 239 236 230 225 222 221 220 217 217 218 218 219 219 220 223 228 234 240 247 255 264 276 288 298 306 312 315 318 320 320 321 321 322 321 320 320 320 321 320 320 320 319 319 317 316 314
215 274 273 41 353 180 182 181 135 133 181 175 136 173 212 164 137 167 268 335 63 290 269 213 246 274 317 278 274 359 286 262 256 269 268 274 258 238 239 238 235 234 230 227 224 222 219 217 216 217 217 218 218 220 224 229 236 241 246 254 266 280 291 300 307 313 316 319 321 321 322 323 323 322 322 322 322 322 322 322 321 320 319 318 316 313
203 266 252 156 204 235 185 166 59 62 135 134 181 209 184 108 102 114 247 332 28 257 272 261 255 269 278 268 300 353 266 255 244 241 259 267 235 228 236 235 235 234 231 229 225 222 219 217 216 216 216 218 218 220 225 229 234 238 245 256 268 281 291 301 309 314 319 320 322 323 325 326 325 325 325 324 325 324 324 324 323 321 319 317 315 313
177 248 267 166 197 249 59 134 179 13 123 143 202 226 117 142 194 117 159 247 245 246 274 282 278 266 206 208 212 204 230 242 237 219 229 245 226 226 234 233 232 232 228 226 224 221 219 217 216 215 214 215 216 219 223 227 232 237 245 256 268 280 290 301 309 314 318 320 325 328 329 329 329 329 328 327 327 326 325 325 323 321 319 317 315 313
139 218 259 261 256 273 44 178 192 192 78 89 222 310 41 159 182 161 161 185 182 230 270 288 296 279 209 182 184 196 210 215 209 204 222 230 222 225 230 229 230 228 225 225 223 221 220 217 215 214 214 214 216 219 223 226 230 234 244 254 265 278 289 300 308 313 318 323 329 332 333 333 332 332 331 330 329 328 326 325 322 320 318 316 315 314
111 214 237 282 335 233 197 209 196 181 162 146 182 226 232 175 119 190 236 141 147 207 252 276 286 274 221 160 176 190 199 200 195 202 219 224 223 226 228 229 230 229 227 227 224 221 218 215 213 212 213 214 216 219 221 223 227 231 239 248 259 274 287 299 307 315 322 328 333 335 336 336 334 333 332 331 330 328 326 324 322 320 318 316 316 315
168 201 212 208 229 218 222 239 194 184 172 172 191 197 195 178 123 192 249 223 163 205 211 188 269 273 242 147 175 183 184 196 200 204 213 219 221 224 226 229 231 230 230 227 223 221 217 213 211 209 210 213 215 218 219 220 224 226 232 241 254 271 284 298 308 316 324 330 334 336 337 336 334 334 332 331 330 328 327 325 323 321 318 317 316 315
141 136 211 229 227 227 252 303 160 204 186 200 216 195 181 174 161 190 229 226 175 218 209 121 267 272 245 154 185 187 184 205 204 198 205 219 222 225 227 229 230 230 230 227 222 220 216 211 209 208 209 212 214 216 217 218 219 221 228 237 249 268 284 297 308 317 324 329 334 335 336 336 334 333 332 331 330 329 328 326 324 322 319 317 317 316
118 124 219 249 279 321 327 352 80 76 64 252 241 190 173 199 201 202 213 188 164 217 193 119 254 261 251 166 203 196 189 229 217 204 211 221 225 230 230 229 230 228 227 224 221 218 213 208 207 207 210 212 213 214 214 214 215 216 223 233 247 267 282 295 307 316 322 328 332 334 334 335 334 333 332 331 330 329 328 326 324 323 321 320 319 319
177 178 189 237 281 306 314 331 349 309 187 222 238 192 193 217 218 221 78 131 227 210 160 159 249 253 252 135 118 330 263 265 249 224 223 228 229 232 232 230 229 226 223 221 219 215 210 206 206 209 211 212 212 211 210 210 211 214 221 233 248 264 280 296 308 316 322 326 329 332 333 334 333 332 332 331 330 329 328 327 326 325 324 323 322 321
178 201 179 208 237 238 242 243 225 211 193 218 247 207 208 217 211 215 219 201 228 206 152 202 244 256 272 248 153 317 269 257 260 243 233 237 237 236 234 230 228 224 222 221 218 212 209 206 208 210 210 211 210 208 207 207 208 214 222 234 248 263 281 298 309 316 323 326 328 331 333 333 333 332 331 330 330 329 328 328 327 326 326 325 324 322
171 223 201 218 228 226 238 241 185 129 151 206 224 217 217 217 209 216 229 217 226 225 209 233 243 265 274 262 248 280 260 250 259 256 240 239 239 237 236 234 231 227 224 221 216 211 208 207 208 209 209 208 206 204 204 205 206 213 222 235 251 270 286 300 311 318 323 326 329 332 332 332 333 332 331 331 330 330 329 328 328 327 327 326 324 321
184 234 220 228 233 233 246 248 187 146 188 208 214 221 224 219 208 214 228 227 224 228 240 245 247 257 262 261 261 265 261 261 265 264 251 245 244 240 238 235 229 224 221 217 212 209 208 208 208 207 206 205 203 202 202 203 207 215 223 238 256 275 290 303 314 320 324 328 330 332 332 332 332 331 332 332 331 330 329 328 328 327 327 327 323 320
195 239 232 233 239 244 253 251 206 173 213 214 209 223 225 216 209 212 227 231 225 224 241 249 249 248 254 259 263 261 260 260 268 274 270 256 248 240 233 229 223 219 217 214 213 211 210 208 206 205 204 203 202 202 202 204 209 217 226 241 261 278 295 309 317 322 326 329 330 331 331 332 332 332 333 332 331 330 329 329 329 329 329 327 323 319
181 243 244 240 251 253 252 251 224 197 234 239 230 236 229 213 212 217 227 232 228 230 244 251 252 253 256 260 259 262 265 265 272 279 272 251 242 233 226 223 221 220 218 217 216 213 210 208 205 203 202 201 202 202 202 205 210 218 229 246 266 283 300 312 318 323 327 329 330 330 331 332 333 333 333 331 330 330 330 331 331 331 330 327 323 320
197 240 248 245 259 255 251 252 235 217 234 242 248 250 238 206 213 229 232 235 234 239 245 250 255 259 261 261 257 263 271 273 274 273 262 252 244 232 226 224 222 222 222 221 218 213 209 206 204 202 202 202 202 201 201 205 211 219 232 249 269 289 305 314 319 325 327 328 329 329 331 333 334 333 332 331 331 331 333 334 334 332 330 327 324 323
194 226 244 236 250 252 252 250 230 221 235 246 250 252 242 214 221 235 237 230 225 235 244 249 254 257 260 265 264 264 267 266 265 263 261 259 251 235 228 227 226 226 226 223 218 212 208 206 203 203 203 201 199 198 200 205 211 219 235 254 275 293 306 314 320 325 326 327 328 329 332 334 333 332 331 331 333 335 336 337 335 333 331 328 328 327
186 208 223 216 240 253 253 217 177 159 237 254 248 245 238 230 234 241 248 241 230 228 237 244 246 250 259 269 269 267 263 256 256 256 257 258 253 241 235 233 231 232 231 227 220 213 209 207 204 203 201 199 197 198 200 205 212 222 238 258 279 294 305 315 321 324 325 326 327 330 333 332 331 331 331 333 336 338 338 338 337 335 333 332 332 333
201 220 225 211 236 251 237 104 102 182 236 249 241 208 218 229 234 237 244 246 241 231 228 240 250 256 262 261 258 261 261 259 260 261 260 259 252 242 237 235 235 236 234 228 221 214 210 206 202 200 199 197 196 197 200 205 213 225 241 261 279 293 305 314 319 322 324 325 328 331 331 330 329 330 332 335 338 339 339 339 339 338 337 336 338 338
204 216 223 216 239 251 143 105 189 229 234 258 304 195 210 223 226 228 237 246 247 242 236 241 250 254 252 252 253 255 260 265 271 274 271 264 254 245 239 237 237 235 231 225 217 213 209 204 199 198 197 196 195 195 199 205 214 227 242 260 277 291 305 314 318 321 322 325 329 330 329 328 329 331 335 338 340 341 341 341 342 342 341 341 343 342
214 212 214 216 218 212 153 195 231 249 276 306 290 253 217 208 203 221 244 252 250 245 237 236 245 248 246 249 254 256 262 273 282 282 275 267 260 250 242 240 241 237 232 228 221 216 211 204 199 198 195 193 193 195 198 204 213 227 241 257 275 291 305 314 317 319 322 326 329 329 328 328 330 333 337 339 340 342 344 344 345 346 345 345 346 345
218 213 213 223 215 218 234 228 241 276 298 282 266 251 198 156 176 204 247 261 258 248 228 218 240 246 244 247 253 257 267 295 296 281 273 269 263 254 247 247 248 242 237 232 224 217 210 202 198 197 194 191 191 194 199 205 213 226 241 255 274 293 305 312 315 318 324 328 329 329 329 330 333 336 339 341 341 344 347 347 348 349 348 348 348 347
216 213 211 227 224 221 242 246 247 258 255 251 257 259 196 183 200 192 224 263 266 252 204 202 232 242 243 247 247 239 267 322 283 272 272 269 261 252 246 243 241 239 233 223 214 208 202 197 194 193 192 191 191 193 198 205 214 226 240 255 275 295 305 310 315 320 327 329 329 329 330 332 336 338 340 342 345 348 350 351 351 351 351 350 349 349
217 218 216 230 235 226 236 244 240 240 244 251 260 265 193 182 177 131 207 257 263 212 167 199 226 232 238 240 215 151 125 233 254 262 268 267 252 241 238 234 230 228 223 217 213 206 197 192 191 190 189 190 191 194 199 206 215 226 239 257 277 295 304 309 317 325 329 330 330 330 331 334 338 340 341 344 348 352 354 354 353 353 353 352 352 351
209 220 222 225 232 231 233 241 242 242 253 259 261 249 164 153 130 118 238 254 242 148 173 200 215 222 227 214 173 155 177 214 240 260 260 249 229 226 231 229 225 219 211 207 207 202 194 189 189 189 187 189 193 196 201 207 214 226 241 261 281 296 305 312 323 329 330 330 330 330 332 336 339 342 344 346 351 356 358 355 354 354 355 355 355 353
197 214 214 216 227 229 228 239 246 244 249 252 242 162 143 133 129 199 239 246 168 159 189 196 203 216 214 183 162 188 214 219 228 246 238 214 206 211 216 220 218 213 208 202 197 193 190 187 188 189 188 190 194 197 202 207 215 228 245 266 286 298 308 318 327 330 329 330 330 331 334 338 341 345 348 349 352 358 0 358 356 356 358 358 357 355
194 204 204 212 226 225 227 241 250 251 245 239 185 142 150 146 200 231 236 259 281 220 201 199 206 211 203 189 192 209 221 221 222 226 225 217 212 208 206 205 201 197 197 195 190 188 187 185 186 188 189 190 194 197 201 208 217 231 249 272 289 300 313 323 328 329 329 329 328 331 336 341 344 349 352 352 355 359 1 0 358 358 0 1 360 358
187 191 202 204 211 216 229 235 236 252 236 192 140 134 171 196 235 239 240 269 266 246 221 213 213 209 202 201 207 215 220 218 214 217 221 217 213 210 205 201 198 194 190 188 185 185 187 187 186 188 189 190 193 197 202 210 220 234 255 277 291 304 317 325 327 328 328 326 327 333 339 344 349 355 356 355 357 0 3 2 360 359 2 4 3 1
177 189 214 208 195 199 219 214 215 245 210 161 156 190 208 212 233 242 238 243 250 243 228 221 222 219 213 212 216 218 217 213 211 211 209 205 204 203 199 196 196 192 188 185 183 183 187 189 188 187 188 190 192 196 203 212 222 238 261 279 293 307 319 325 326 326 325 323 327 335 342 348 355 359 0 359 358 1 5 5 2 0 3 7 7 3
192 201 216 218 201 200 215 218 216 231 195 174 187 216 217 216 230 239 236 235 244 242 230 224 228 228 223 221 222 219 216 216 214 210 206 204 201 198 196 194 193 191 187 183 182 183 186 190 190 187 188 189 191 198 205 212 223 243 265 282 296 309 318 323 324 323 321 321 326 337 346 354 2 4 3 2 0 2 6 8 6 3 4 8 9 6
209 211 218 224 216 216 233 245 235 227 194 189 206 223 226 225 230 234 234 237 243 243 237 233 234 234 230 226 222 219 221 220 214 208 205 202 197 195 194 191 189 188 185 182 182 183 184 187 189 189 189 191 193 199 207 213 223 244 266 283 298 309 317 321 321 320 318 319 327 339 349 359 9 11 7 4 3 4 7 10 9 7 7 8 10 9
220 220 222 221 215 218 231 236 232 229 215 204 213 224 231 233 232 230 230 234 237 240 241 239 238 236 234 231 226 225 225 220 210 204 200 196 193 192 191 189 186 186 186 184 184 184 184 186 188 189 190 193 195 199 206 213 225 247 266 283 298 308 315 318 317 316 316 321 330 342 351 3 13 15 12 9 5 4 7 9 10 11 11 9 9 8
212 212 217 219 216 222 230 230 231 234 227 221 225 231 234 237 235 231 230 233 235 237 238 239 237 233 231 232 231 227 223 217 210 204 198 194 193 191 190 190 187 185 185 186 186 186 187 187 188 190 191 194 197 200 204 212 228 248 267 284 297 307 312 314 313 313 314 322 334 344 356 7 12 13 16 16 12 7 5 5 10 15 14 11 10 8
190 197 199 206 218 230 239 241 245 250 240 232 235 237 238 239 238 233 231 233 234 233 234 235 235 233 234 236 233 225 219 215 212 208 201 196 194 191 191 190 188 186 186 186 187 189 189 189 190 191 192 194 197 200 204 214 231 249 268 284 295 304 309 307 308 310 314 325 338 349 1 10 11 10 12 17 22 21 12 6 7 12 14 13 12 11
186 206 201 205 223 230 232 232 234 237 236 231 234 236 236 237 237 234 231 231 232 233 232 231 231 232 234 236 232 225 220 218 215 210 204 199 196 194 192 190 188 187 186 185 185 186 187 188 190 191 191 194 197 200 206 218 233 250 268 281 290 298 300 299 303 307 314 327 341 354 7 13 12 10 8 10 18 27 27 21 14 11 13 15 15 16
204 212 206 211 227 229 225 225 227 229 232 234 238 241 240 236 233 232 230 231 233 233 231 229 228 227 227 228 228 225 225 224 218 209 203 200 198 196 192 191 190 188 186 185 185 184 183 185 188 190 192 194 197 201 209 219 234 250 263 275 283 286 285 289 296 301 310 328 345 358 10 14 13 12 10 9 12 16 22 28 27 20 18 18 16 17